TIME,DELAY(SENSOR),PRES,OXYGEN,RAWTEMP,T(OPTODE),TCPHASE,FLUOR,BETA(BETA700),BETA(BETA412),BETA(BETA440),CDOM,C(CSC),ED(ED412.20),ED(ED444.00),ED(ED489.60),ED(ED554.30),LU(LU412.10),LU(LU443.90),LU(LU489.70),LU(LU554.70),COMP,TILTX,TILTY,CHECK
1364616131,5812,873.6599731445312000,35.5970001220703100,563.3156127929688000,4.3830928802490230,56.2189903259277340,55,98,99,78,81,15507,0,0,0,0,2147123922,2147772608,2147569316,2147567744,1879,2,13,1484
1364619727,5810,941.6099853515625000,39.6508598327636700,568.9257202148438000,4.2089419364929200,55.6556892395019500,55,97,100,78,82,15502,0,0,0,0,2147124973,2147770102,2147569024,2147571181,3595,3,13,34067
1364623327,5811,956.4099731445312000,39.1288604736328100,569.0949096679688000,4.2036838531494140,55.7346801757812500,55,98,100,77,82,15506,0,0,0,0,2147124150,2147770505,2147569682,2147570770,102,2,13,46278
1364626927,5811,984.7899780273438000,40.1170501708984400,571.1856079101562000,4.1387119293212890,55.6110687255859400,54,97,99,78,82,15504,0,0,0,0,2147123556,2147770496,2147571474,2147570578,3151,2,13,11662
1364630527,5809,983.2000122070312000,40.0939292907714840,573.1223754882812000,4.0784912109375000,55.6326408386230500,54,98,100,77,82,15505,0,0,0,0,2147123126,2147771008,2147568128,2147570157,326,2,13,63806
1364634127,5811,981.3699951171875000,40.3693008422851560,573.6248168945312000,4.0628638267517090,55.6017608642578100,55,98,100,77,82,15503,0,0,0,0,2147126564,2147773988,2147570870,2147572132,3418,2,13,32798
1364637727,5809,982.3800048828125000,41.0475387573242200,573.9157714843750000,4.0538101196289060,55.5022888183593750,54,98,100,78,82,15501,0,0,0,0,2147121380,2147769316,2147571510,2147570550,344,2,13,6243
1364641327,5809,990.6500244140625000,41.2540702819824200,573.8894042968750000,4.0546321868896480,55.4740982055664060,54,98,99,77,81,15503,0,0,0,0,2147123867,2147774372,2147568704,2147567323,354,2,13,3573
1364644927,5812,989.5599975585938000,40.1028709411621100,573.6038818359375000,4.0635128021240230,55.6399917602539060,56,106,99,77,81,15487,0,0,0,0,2147123830,2147772882,2147569133,2147569042,3381,2,13,64275
1364648527,5810,990.9299926757812000,40.5771789550781250,573.6348266601562000,4.0625529289245605,55.5649299621582000,55,97,100,79,82,15500,0,0,0,0,2147122541,2147771163,2147573805,2147568630,3237,2,13,35415
1364652127,5810,993.1500244140625000,40.6338081359863300,573.6030883789062000,4.0635380744934080,55.5624198913574200,55,97,100,77,83,15504,0,0,0,0,2147119625,2147768457,2147570258,2147568164,3091,2,13,22202
1364655727,5810,994.5100097656250000,39.8160400390625000,573.5211181640625000,4.0660901069641110,55.6813392639160160,54,96,101,78,82,15501,0,0,0,0,2147121197,2147774089,2147568256,2147569024,3477,2,13,13829
1364659327,5811,991.9299926757812000,40.1640281677246100,573.8817138671875000,4.0548710823059080,55.6368293762207000,55,97,99,77,81,15500,0,0,0,0,2147122422,2147768384,2147570550,2147568100,246,2,13,29004
1364662927,5808,991.6900024414062000,41.3305892944335940,573.9262695312500000,4.0534839630126950,55.4573783874511700,55,97,99,78,82,15503,0,0,0,0,2147124726,2147766573,2147569142,2147570102,288,2,13,28557
1364666527,5808,990.6400146484375000,40.8430480957031250,574.0853271484375000,4.0485382080078125,55.5350799560546900,55,99,100,78,81,15501,0,0,0,0,2147124068,2147770907,2147570550,2147569042,227,2,13,7656
1364670127,5808,996.0399780273438000,40.9420509338378900,573.9282226562500000,4.0534248352050780,55.5161781311035160,55,99,100,76,82,15501,0,0,0,0,2147121024,2147771584,2147568420,2147572123,396,2,13,20690
1364673727,5807,992.3599853515625000,39.9417686462402340,573.8502807617188000,4.0558471679687500,55.6630401611328100,55,98,99,78,82,15501,0,0,0,0,2147121801,2147772278,2147569609,2147568420,141,2,13,46369
1364677327,5809,995.7199707031250000,40.0256118774414060,573.9099731445312000,4.0539889335632320,55.6554603576660160,55,96,101,77,82,15501,0,0,0,0,2147124361,2147770313,2147571236,2147566811,314,2,13,52911
1364680927,5811,994.3099975585938000,40.3151206970214840,573.8988037109375000,4.0543379783630370,55.6073303222656250,54,98,99,78,83,15499,0,0,0,0,2147122203,2147776347,2147571017,2147567945,4,2,13,5875
1364684527,5808,992.6500244140625000,40.7499198913574200,573.7606201171875000,4.0586400032043460,55.5413093566894500,54,100,100,78,80,15501,0,0,0,0,2147126528,2147774061,2147571227,2147570550,134,2,13,20992
1364688127,5811,990.7299804687500000,41.7564392089843750,573.9293212890625000,4.0533909797668460,55.3991394042968750,56,98,100,78,81,15499,0,0,0,0,2147122660,2147770770,2147573595,2147569755,674,2,13,63490
1364691727,5809,990.8200073242188000,41.0364189147949200,574.1937866210938000,4.0451598167419430,55.5087318420410160,55,101,101,78,82,15499,0,0,0,0,2147121426,2147771483,2147569033,2147568978,3560,2,13,64327
1364695327,5810,985.3599853515625000,42.5543098449707000,575.6035766601562000,4.0012931823730470,55.2975196838378900,55,98,101,77,82,15499,0,0,0,0,2147121609,2147770413,2147573321,2147569865,408,2,13,61072
1364698927,5809,989.4500122070312000,42.1860313415527340,575.2171020507812000,4.0133209228515625,55.3503799438476560,55,97,99,77,81,15493,0,0,0,0,2147123949,2147774683,2147570368,2147568777,141,3,13,48897
1364702527,5812,998.6799926757812000,42.8392906188964840,574.4302978515625000,4.0378041267395020,55.2440299987793000,56,98,101,77,81,15494,0,0,0,0,2147124416,2147772726,2147569545,2147572845,424,3,13,28424
1364706127,5810,991.2000122070312000,40.9742012023925800,574.3140258789062000,4.0414218902587890,55.5158081054687500,55,98,101,78,82,15494,0,0,0,0,2147122989,2147771273,2147566857,2147569600,275,2,13,49607
1364709727,5811,997.6599731445312000,42.0195617675781250,574.1840820312500000,4.0454621315002440,55.3644599914550800,54,100,100,78,82,15495,0,0,0,0,2147123136,2147772909,2147567808,2147569499,82,2,13,50177
1364713327,5809,991.9600219726562000,41.0044097900390600,574.2202148437500000,4.0443420410156250,55.5132598876953100,54,98,100,79,83,15491,0,0,0,0,2147122404,2147773312,2147570532,2147571675,3584,2,13,25100
1364716927,5809,991.3200073242188000,42.6858596801757800,574.6890258789062000,4.0297532081604000,55.2726097106933600,54,98,101,79,81,15492,0,0,0,0,2147121526,2147772416,2147565668,2147570422,150,3,13,1681
1364720527,5808,984.1599731445312000,42.7948112487793000,575.7296752929688000,3.9973680973052980,55.2695083618164060,55,98,100,78,82,15492,0,0,0,0,2147120676,2147774601,2147570029,2147569910,3587,2,13,45005
1364724127,5811,986.9600219726562000,42.7686080932617200,575.7296142578125000,3.9973719120025635,55.2734603881835940,55,98,100,78,82,15490,0,0,0,0,2147120073,2147767588,2147577874,2147567954,3498,3,13,28793
1364727727,5809,993.2100219726562000,42.6935195922851560,574.7824096679688000,4.0268478393554690,55.2691802978515600,55,99,99,77,81,15493,0,0,0,0,2147120841,2147776768,2147571364,2147570596,3582,2,13,29718
1364731327,5809,990.4199829101562000,42.4588584899902340,575.1508178710938000,4.0153827667236330,55.3099288940429700,55,98,100,78,81,15491,0,0,0,0,2147122377,2147773275,2147571629,2147569691,3507,2,13,39174
1364734927,5812,999.4799804687500000,42.6648483276367200,574.1362304687500000,4.0469532012939450,55.2689399719238300,54,99,99,78,82,15481,0,0,0,0,2147125248,2147775488,2147575030,2147568310,3515,2,13,35503
1364738527,5809,997.4799804687500000,41.3911018371582000,573.8494873046875000,4.0558738708496090,55.4523582458496100,55,98,100,78,81,15489,0,0,0,0,2147123017,2147775625,2147574756,2147569088,686,2,13,63652
1364742127,5810,996.3300170898438000,40.8653793334960940,573.8331298828125000,4.0563812255859375,55.5298805236816400,54,99,100,78,82,15489,0,0,0,0,2147125796,2147771840,2147573403,2147566930,3076,2,13,28462
1364745727,5811,1003.7100219726562000,40.4405097961425800,573.6417846679688000,4.0623321533203125,55.5900001525878900,55,98,100,78,82,15486,0,0,0,0,2147123209,2147774262,2147572068,2147570148,40,2,13,51524
1364749327,5809,1000.0900268554688000,39.9987487792968750,573.4318847656250000,4.0688629150390625,55.6504096984863300,54,101,98,77,82,15485,0,0,0,0,2147122752,2147774006,2147566198,2147568438,175,2,13,21005
1364752927,5809,1000.3200073242188000,41.6762619018554700,573.6987304687500000,4.0605640411376950,55.4046592712402340,55,98,100,78,82,15484,0,0,0,0,2147121444,2147770916,2147570422,2147569993,3488,2,13,34952
1364756527,5809,1002.0200195312500000,40.4074516296386700,573.6436767578125000,4.0622749328613280,55.5939788818359400,55,98,98,78,81,15485,0,0,0,0,2147120265,2147773613,2147575030,2147568585,3298,2,13,28243
1364760127,5810,996.4500122070312000,40.4899406433105500,573.4307250976562000,4.0689010620117190,55.5769615173339840,55,98,101,78,82,15486,0,0,0,0,2147121728,2147773321,2147571840,2147566363,184,2,13,35356
1364761555,5809,1001.5800170898438000,40.2545700073242200,573.8267211914062000,4.0565810203552250,55.6147117614746100,55,97,99,77,81,15485,0,0,0,0,2147121078,2147776402,2147573558,2147571419,462,2,13,23255
